Radiation Dose at Monitoring Post of Fukushima Daini Nuclear Power Station
Date,Time,MP-1(microSv/h),MP-2(microSv/h),MP-3(microSv/h),MP-4(microSv/h),MP-5(microSv/h),MP-6(microSv/h),MP-7(microSv/h),Wind Direction,Wind Velocity(m/s),Rain
2019/06/02,00:00,0.195,0.179,0.299,0.281,0.275,0.149,0.091,south-southwest,1.6,No
2019/06/02,00:10,0.195,0.179,0.298,0.281,0.272,0.150,0.092,south-southwest,1.6,No
2019/06/02,00:20,0.196,0.178,0.300,0.280,0.275,0.150,0.092,southwest,1.3,No
2019/06/02,00:30,0.196,0.179,0.299,0.281,0.272,0.149,0.092,west-southwest,1.1,No
2019/06/02,00:40,0.196,0.178,0.299,0.281,0.274,0.148,0.092,west,1.0,No
2019/06/02,00:50,0.195,0.179,0.298,0.281,0.271,0.149,0.092,west,1.9,No
2019/06/02,01:00,0.196,0.178,0.297,0.281,0.274,0.150,0.092,west,1.6,No
2019/06/02,01:10,0.195,0.179,0.297,0.282,0.270,0.149,0.091,west-southwest,2.5,No
2019/06/02,01:20,0.196,0.177,0.299,0.281,0.275,0.149,0.092,west-southwest,2.8,No
2019/06/02,01:30,0.195,0.178,0.298,0.283,0.271,0.150,0.092,west-southwest,4.0,No
2019/06/02,01:40,0.196,0.178,0.298,0.281,0.274,0.149,0.092,west-southwest,4.4,No
2019/06/02,01:50,0.196,0.179,0.299,0.281,0.271,0.150,0.092,west,3.9,No
2019/06/02,02:00,0.196,0.178,0.298,0.281,0.274,0.149,0.092,west,2.6,No
2019/06/02,02:10,0.195,0.178,0.300,0.282,0.271,0.149,0.092,west,1.3,No
2019/06/02,02:20,0.195,0.179,0.298,0.280,0.273,0.149,0.092,west,1.4,No
2019/06/02,02:30,0.196,0.178,0.299,0.281,0.271,0.149,0.093,west-northwest,0.6,No
2019/06/02,02:40,0.195,0.179,0.298,0.281,0.274,0.150,0.092,west-northwest,0.7,No
2019/06/02,02:50,0.194,0.178,0.300,0.282,0.272,0.149,0.092,-,CALM,No
2019/06/02,03:00,0.195,0.178,0.297,0.281,0.274,0.149,0.092,west,1.0,No
2019/06/02,03:10,0.195,0.177,0.299,0.283,0.272,0.149,0.091,west-northwest,1.1,No
2019/06/02,03:20,0.197,0.177,0.298,0.282,0.274,0.149,0.092,north-northwest,1.1,No
2019/06/02,03:30,0.196,0.179,0.300,0.281,0.272,0.150,0.091,north-northwest,0.6,No
2019/06/02,03:40,0.195,0.177,0.298,0.282,0.274,0.149,0.092,-,CALM,No
2019/06/02,03:50,0.195,0.179,0.297,0.281,0.271,0.150,0.093,north-northwest,1.0,No
2019/06/02,04:00,0.196,0.179,0.300,0.283,0.274,0.149,0.091,west-northwest,1.4,No
2019/06/02,04:10,0.194,0.178,0.298,0.279,0.272,0.149,0.092,west-northwest,3.2,No
2019/06/02,04:20,0.196,0.179,0.299,0.281,0.274,0.149,0.091,west-northwest,2.8,No
2019/06/02,04:30,0.195,0.177,0.298,0.281,0.272,0.149,0.091,west-northwest,2.6,No
2019/06/02,04:40,0.197,0.178,0.300,0.281,0.273,0.149,0.092,northwest,2.2,No
2019/06/02,04:50,0.195,0.176,0.298,0.283,0.273,0.149,0.092,west-northwest,3.2,No
2019/06/02,05:00,0.196,0.178,0.299,0.282,0.273,0.149,0.092,west-northwest,3.3,No
2019/06/02,05:10,0.195,0.178,0.298,0.283,0.271,0.149,0.091,west-northwest,2.4,No
2019/06/02,05:20,0.196,0.178,0.299,0.282,0.275,0.150,0.092,northwest,1.6,No
2019/06/02,05:30,0.195,0.179,0.298,0.281,0.271,0.149,0.092,north-northwest,1.0,No
2019/06/02,05:40,0.197,0.178,0.299,0.281,0.273,0.150,0.092,northwest,1.4,No
2019/06/02,05:50,0.195,0.178,0.299,0.283,0.271,0.150,0.092,-,CALM,No
2019/06/02,06:00,0.198,0.177,0.297,0.280,0.273,0.149,0.092,-,CALM,No
2019/06/02,06:10,0.196,0.178,0.300,0.281,0.272,0.149,0.092,-,CALM,No
2019/06/02,06:20,0.197,0.178,0.298,0.283,0.272,0.150,0.092,-,CALM,No
2019/06/02,06:30,0.195,0.178,0.300,0.282,0.273,0.149,0.092,-,CALM,No
2019/06/02,06:40,0.196,0.179,0.299,0.278,0.270,0.149,0.092,north-northeast,0.6,No
2019/06/02,06:50,0.194,0.175,0.300,0.282,0.274,0.150,0.091,northeast,1.0,No
2019/06/02,07:00,0.196,0.177,0.299,0.279,0.272,0.149,0.092,-,CALM,No
2019/06/02,07:10,0.195,0.178,0.296,0.281,0.271,0.149,0.092,east,0.6,No
2019/06/02,07:20,0.196,0.178,0.297,0.281,0.275,0.148,0.092,east-northeast,0.8,No
2019/06/02,07:30,0.197,0.177,0.299,0.279,0.271,0.150,0.092,east-northeast,1.7,No
2019/06/02,07:40,0.194,0.179,0.296,0.281,0.270,0.150,0.093,east-northeast,1.9,No
2019/06/02,07:50,0.197,0.179,0.297,0.282,0.273,0.151,0.092,east,2.5,No
2019/06/02,08:00,0.196,0.180,0.299,0.280,0.272,0.150,0.093,east-northeast,1.9,No
2019/06/02,08:10,0.197,0.180,0.301,0.282,0.274,0.150,0.093,east,1.8,No
2019/06/02,08:20,0.196,0.179,0.302,0.282,0.275,0.150,0.092,east,2.2,No
2019/06/02,08:30,0.197,0.180,0.297,0.280,0.272,0.149,0.093,east,1.4,No
2019/06/02,08:40,0.196,0.178,0.298,0.281,0.271,0.151,0.092,east,1.8,No
2019/06/02,08:50,0.195,0.178,0.300,0.284,0.274,0.150,0.092,south-southeast,1.7,No
2019/06/02,09:00,0.197,0.179,0.298,0.281,0.273,0.149,0.091,south-southeast,0.8,No
2019/06/02,09:10,0.195,0.179,0.298,0.280,0.271,0.151,0.092,south,1.5,No
2019/06/02,09:20,0.195,0.178,0.299,0.279,0.270,0.150,0.094,south-southeast,1.8,No
2019/06/02,09:30,0.197,0.179,0.299,0.281,0.272,0.149,0.092,south,1.9,No
2019/06/02,09:40,0.195,0.178,0.298,0.284,0.274,0.150,0.092,south,1.6,No
2019/06/02,09:50,0.195,0.177,0.300,0.281,0.273,0.151,0.091,south-southeast,1.5,No
2019/06/02,10:00,0.194,0.177,0.297,0.281,0.272,0.150,0.092,-,CALM,No
2019/06/02,10:10,0.197,0.176,0.296,0.281,0.270,0.149,0.093,-,CALM,No
2019/06/02,10:20,0.196,0.178,0.297,0.279,0.269,0.150,0.091,south-southeast,1.0,No
2019/06/02,10:30,0.194,0.180,0.299,0.277,0.270,0.150,0.092,southeast,1.6,No
2019/06/02,10:40,0.194,0.180,0.299,0.284,0.271,0.150,0.093,southeast,1.0,No
2019/06/02,10:50,0.198,0.178,0.296,0.284,0.273,0.151,0.092,south-southeast,1.7,No
2019/06/02,11:00,0.195,0.179,0.297,0.282,0.273,0.150,0.092,east-southeast,1.4,No
2019/06/02,11:10,0.195,0.180,0.300,0.279,0.272,0.149,0.093,southeast,2.9,No
2019/06/02,11:20,0.194,0.179,0.300,0.283,0.271,0.149,0.093,south-southeast,4.8,No
2019/06/02,11:30,0.196,0.178,0.297,0.283,0.270,0.150,0.092,south,5.1,No
2019/06/02,11:40,0.197,0.178,0.296,0.282,0.273,0.150,0.092,south-southeast,4.5,No
2019/06/02,11:50,0.195,0.179,0.301,0.280,0.275,0.150,0.091,south-southeast,3.8,No
2019/06/02,12:00,0.194,0.179,0.299,0.279,0.273,0.150,0.092,south-southeast,4.9,No
2019/06/02,12:10,0.194,0.178,0.297,0.284,0.272,0.149,0.092,south-southeast,4.3,No
2019/06/02,12:20,0.196,0.177,0.296,0.284,0.270,0.149,0.092,south-southeast,5.4,No
2019/06/02,12:30,0.197,0.177,0.297,0.281,0.270,0.150,0.092,south-southeast,4.4,No
2019/06/02,12:40,0.194,0.178,0.300,0.280,0.270,0.151,0.091,south-southeast,3.3,No
2019/06/02,12:50,0.195,0.179,0.299,0.280,0.271,0.150,0.091,south-southeast,3.9,No
2019/06/02,13:00,0.194,0.178,0.297,0.279,0.269,0.149,0.092,southeast,1.1,No
2019/06/02,13:10,0.194,0.179,0.297,0.282,0.270,0.149,0.093,south-southeast,3.1,No
2019/06/02,13:20,0.193,0.178,0.296,0.284,0.271,0.149,0.092,south-southeast,2.5,No
2019/06/02,13:30,0.197,0.177,0.296,0.284,0.273,0.149,0.092,south-southeast,2.1,No
2019/06/02,13:40,0.196,0.177,0.297,0.281,0.275,0.150,0.091,southeast,2.6,No
2019/06/02,13:50,0.195,0.178,0.300,0.280,0.274,0.150,0.091,south-southeast,3.4,No
2019/06/02,14:00,0.194,0.178,0.299,0.282,0.273,0.149,0.092,southeast,4.8,No
2019/06/02,14:10,0.193,0.179,0.298,0.284,0.271,0.149,0.092,south-southeast,8.4,No
2019/06/02,14:20,0.196,0.178,0.296,0.281,0.270,0.150,0.091,southeast,5.1,No
2019/06/02,14:30,0.198,0.178,0.299,0.280,0.272,0.149,0.091,south-southeast,7.0,No
2019/06/02,14:40,0.195,0.179,0.301,0.281,0.275,0.150,0.092,south-southeast,8.1,No
2019/06/02,14:50,0.194,0.178,0.299,0.284,0.273,0.149,0.092,south-southeast,7.6,No
2019/06/02,15:00,0.197,0.178,0.298,0.282,0.271,0.150,0.092,south-southeast,6.4,No
2019/06/02,15:10,0.196,0.178,0.301,0.279,0.272,0.149,0.093,south-southeast,8.2,No
2019/06/02,15:20,0.195,0.179,0.301,0.284,0.275,0.150,0.092,south-southeast,6.2,No
2019/06/02,15:30,0.195,0.178,0.298,0.283,0.273,0.149,0.092,south,7.7,No
2019/06/02,15:40,0.197,0.178,0.300,0.280,0.270,0.150,0.093,south-southeast,8.5,No
2019/06/02,15:50,0.196,0.179,0.300,0.284,0.274,0.148,0.093,south,8.7,No
2019/06/02,16:00,0.195,0.178,0.297,0.283,0.273,0.150,0.092,south,8.8,No
2019/06/02,16:10,0.197,0.178,0.299,0.280,0.271,0.149,0.092,south,8.2,No
2019/06/02,16:20,0.196,0.180,0.300,0.283,0.274,0.150,0.091,south-southeast,7.9,No
2019/06/02,16:30,0.194,0.178,0.298,0.281,0.275,0.150,0.089,south,9.0,No
2019/06/02,16:40,0.197,0.178,0.301,0.280,0.270,0.149,0.093,south,7.6,No
2019/06/02,16:50,0.197,0.179,0.301,0.285,0.274,0.148,0.092,south,7.9,No
2019/06/02,17:00,0.195,0.178,0.297,0.282,0.274,0.150,0.091,south-southeast,8.6,No
2019/06/02,17:10,0.197,0.180,0.300,0.281,0.271,0.149,0.092,south,6.7,No
2019/06/02,17:20,0.196,0.179,0.299,0.284,0.275,0.150,0.092,south-southeast,5.9,No
2019/06/02,17:30,0.196,0.179,0.299,0.281,0.275,0.150,0.093,south,6.2,No
2019/06/02,17:40,0.197,0.178,0.300,0.283,0.271,0.149,0.092,south,6.3,No
2019/06/02,17:50,0.196,0.178,0.298,0.284,0.274,0.150,0.092,south,6.3,No
2019/06/02,18:00,0.196,0.180,0.300,0.282,0.274,0.149,0.094,south,5.7,No
2019/06/02,18:10,0.197,0.179,0.301,0.284,0.272,0.149,0.092,south,6.3,No
2019/06/02,18:20,0.196,0.179,0.300,0.282,0.275,0.150,0.092,south,7.3,No
2019/06/02,18:30,0.197,0.180,0.300,0.283,0.273,0.150,0.091,south,6.3,No
2019/06/02,18:40,0.196,0.178,0.298,0.283,0.273,0.150,0.092,south,6.2,No
2019/06/02,18:50,0.197,0.180,0.301,0.281,0.275,0.149,0.092,south,6.3,No
2019/06/02,19:00,0.197,0.179,0.300,0.284,0.273,0.149,0.092,south,6.6,No
2019/06/02,19:10,0.196,0.181,0.300,0.282,0.275,0.150,0.092,south,6.8,No
2019/06/02,19:20,0.198,0.178,0.301,0.284,0.273,0.150,0.091,south,7.3,No
2019/06/02,19:30,0.195,0.179,0.298,0.284,0.274,0.150,0.092,south,7.6,No
2019/06/02,19:40,0.196,0.179,0.300,0.283,0.273,0.150,0.092,south-southwest,8.7,No
2019/06/02,19:50,0.197,0.179,0.299,0.283,0.273,0.149,0.092,south,7.5,No
2019/06/02,20:00,0.195,0.179,0.301,0.282,0.274,0.150,0.091,south,7.0,No
2019/06/02,20:10,0.197,0.179,0.300,0.285,0.271,0.149,0.092,south-southwest,7.1,No
2019/06/02,20:20,0.196,0.178,0.299,0.282,0.275,0.149,0.092,south-southwest,7.7,No
2019/06/02,20:30,0.197,0.179,0.301,0.282,0.273,0.151,0.092,south-southwest,6.3,No
2019/06/02,20:40,0.196,0.179,0.299,0.283,0.273,0.150,0.092,south-southwest,6.6,No
2019/06/02,20:50,0.196,0.179,0.302,0.282,0.272,0.150,0.092,south-southwest,6.5,No
2019/06/02,21:00,0.196,0.179,0.299,0.285,0.273,0.149,0.092,south-southwest,5.9,No
2019/06/02,21:10,0.196,0.180,0.302,0.282,0.275,0.150,0.092,south-southwest,5.1,No
2019/06/02,21:20,0.196,0.178,0.301,0.285,0.273,0.149,0.092,south-southwest,4.5,No
2019/06/02,21:30,0.195,0.179,0.300,0.282,0.274,0.151,0.092,south-southwest,4.0,No
2019/06/02,21:40,0.198,0.179,0.300,0.284,0.272,0.150,0.093,south,3.9,No
2019/06/02,21:50,0.195,0.178,0.299,0.285,0.275,0.150,0.092,south,3.9,No
2019/06/02,22:00,0.197,0.179,0.302,0.282,0.273,0.151,0.093,south,4.3,No
2019/06/02,22:10,0.195,0.179,0.298,0.283,0.274,0.150,0.092,south,4.8,No
2019/06/02,22:20,0.196,0.180,0.300,0.281,0.274,0.151,0.092,south,3.9,No
2019/06/02,22:30,0.197,0.179,0.300,0.285,0.272,0.149,0.092,south,4.0,No
2019/06/02,22:40,0.196,0.179,0.300,0.281,0.276,0.151,0.091,south,4.5,No
2019/06/02,22:50,0.197,0.179,0.301,0.284,0.272,0.150,0.093,south,3.9,No
2019/06/02,23:00,0.194,0.179,0.299,0.281,0.275,0.150,0.092,south-southwest,4.4,No
2019/06/02,23:10,0.196,0.180,0.301,0.283,0.273,0.150,0.093,south-southwest,3.8,No
2019/06/02,23:20,0.196,0.179,0.300,0.282,0.275,0.150,0.093,south-southwest,4.2,No
2019/06/02,23:30,0.197,0.179,0.301,0.284,0.272,0.149,0.093,south-southwest,3.8,No
2019/06/02,23:40,0.196,0.179,0.300,0.283,0.274,0.151,0.093,south-southwest,3.3,No
2019/06/02,23:50,0.197,0.180,0.303,0.283,0.275,0.150,0.094,south-southwest,2.9,No
